STARLINK-34653, 64917

Orbit data source: Space-Track

STARLINK-34653, 64917 is a payload satellite owned by SpaceX/Seattle (US) in LEO that was launched on Sat, 26 Jul 2025 UTC via an FALCON 9 launch vehicle from the Air Force Eastern Test Range (AFETR). Payload-class satellites include a variety of spacecraft equipped with specific instruments for various scientific and technological missions. These include communications satellites like Starlink; space stations such as the ISS; scientific satellites like the Hubble; Earth observation satellites from companies like Planet Labs, Umbra, and HawkEye 360; GPS; miniature CubeSats for education and research; and military/defense satellites.

Loading next visibility...
Identifier
64917, 2025-157P
Orbit
LEO
Country
Flag of USUS
Related business
Manufacturer
SpaceX/Seattle
Mission
Operational Commercial Communications
Bus & Motor
STARLINK V2MO, Unknown motor
Mass
575 kg wet, ~530 kg dry
Launch date (UTC)
2025-07-26 (10 months ago)
Launch vehicle
FALCON 9
Launch site
Air Force Eastern Test Range (AFETR)
Object type
Payload
Rocket body
Debris
Shape & HBR
Box + 2 Pan, 17.7 m
Radar Cross Section
36.964 m², Large (>1 m²)

Expand to show TLE details & history
Last TLE update: 21 hours ago

TLE from 21 hours ago
0 STARLINK-34653
1 64917U 25157P   26144.98151017  .00029708  00000-0  96478-3 0  9999
2 64917  53.1605 351.3506 0001232  86.4550 273.6592 15.31716096 47754
Epoch: 2026-05-24T23:33Z
TLE epoch observation values (Epoch: 2026-05-24T23:33:22.478Z)
Latitude
-0.00006°
Longitude
115.43104°
Altitude
471.539 km
Speed
7.632 km/s
True Right ascension
23h 25m 24s
True Declination
0° 00' 00"
Sunlit
Object was in daylight at epoch
Visualization orbit readout
Latitude
Unknown
Longitude
Unknown
Altitude
Unknown
Speed
Unknown
Apparent Right ascension
Unknown
Apparent Declination
Unknown
Sunlit
N/A
Visualization observer readout
Local Sidereal Time
06:10:24
Azimuth
Unknown
Elevation
Unknown
Doppler factor
Unknown
Orbital elements
Apogee altitude
471.792 km
Perigee altitude
470.105 km
Semi-major axis
6,849.086 km
Eccentricity
0.00012
Inclination
53.1605°
RAAN
351.3506°
Arg. of periapsis
86.455°
True anomaly
273.64511°
Mean anomaly
273.6592°
Eccentric anomaly
273.65216°
Mean motion
3.82908 °/min
Orbital period
94.02 mins
BSTAR
0.00096478
Loading maneuver chart data...
Computing Atmospheric mass density...
Loading historical data...
Loading historical data...
Loading historical data...
Loading historical data...
Loading historical data...
Loading historical data...
Loading historical data...

Documentation

Showing up to 5 results
|